Hourly Data Report for September 22, 2017

All times are specified in Local Standard Time (LST). Add 1 hour to adjust for Daylight Saving Time where and when it is observed.

DOAKTOWN AUTO RCS
NEW BRUNSWICK

46°35'06.090" N
66°00'35.071" W
43.00 m
8101201
71038
ADN

Download Data

Hourly Data (September 2017)
Hourly Data Report for September 22, 2017
Temp Definition
°C
Dew Point Temp Definition
°C
Rel Hum Definition
%
Wind Dir Definition
10's deg

Wind Spd Definition
km/h
Visibility Definition
km
Stn Press Definition
kPa
Hmdx Definition


Wind Chill Definition


Weather Definition


TIME
00:00 4.9 3.9 93 0 1   101.81     LegendNANA
01:00 4.2 3.3 94 30 2   101.85     LegendNANA
02:00 3.7 2.9 95 0 1   101.83     LegendNANA
03:00 2.9 2.3 96   0   101.79     LegendNANA
04:00 2.7 2.2 96 26 2   101.76     LegendNANA
05:00 2.1 1.6 97   0   101.76     LegendNANA
06:00 1.7 1.2 97   0   101.80     LegendNANA
07:00 2.7 2.3 97 28 4   101.82     LegendNANA
08:00 4.1 3.7 97 23 3   101.82     LegendNANA
09:00 9.2 8.0 93 19 2   101.82     LegendNANA
10:00 14.6 9.5 72 27 2   101.77     LegendNANA
11:00 17.5 8.2 54 19 3   101.69     LegendNANA
12:00 20.0 5.5 39 17 4   101.62     LegendNANA
13:00 21.5 4.4 33 12 6   101.54     LegendNANA
14:00 22.7 0.4 23 10 6   101.48     LegendNANA
15:00 23.0 2.3 26 6 5   101.42     LegendNANA
16:00 23.3 1.5 24 7 2   101.38     LegendNANA
17:00 23.0 4.5 30 9 3   101.32     LegendNANA
18:00 16.7 8.0 56   0   101.30     LegendNANA
19:00 13.6 7.7 68   0   101.30     LegendNANA
20:00 12.0 7.9 76 0 1   101.30     LegendNANA
21:00 10.4 7.6 83 26 2   101.25     LegendNANA
22:00 9.0 7.3 89 0 1   101.30     LegendNANA
23:00 8.5 7.0 90 27 1   101.27     LegendNANA

Notes on Data Quality.

Legend

  • E = Estimated
  • M = Missing
  • NA = Not Available
  • ‡ = Partner data that is not subject to review by the National Climate Archives
Date modified: